Accueil
METAR-TAF:

METAR-TAF

Aéroports :

Vannes, France

Aéroport de Vannes

latitude: 47-43-19N, longitude: 2-43-41W, altitude: 130 m

Observation

Le bulletin a été fait il y a 15 minutes, à 09:00 UTC
Vent 8 kt de ouest, variant entre ouest/sud-ouest et nord-ouest
Température 16°C
Humidité 77%
Pression 1024 hPa
Visibilité 10 km ou plus
Quelques nuages à une hauteur de 1700 ft

METAR: LFRV 190900Z AUTO 28008KT 240V320 9999 FEW017 16/12 Q1024

Heure: 11:15 (09:15 UTC)


TAF: absent

Observations et prévisions météorologiques de plus de 4000 aéroports (messages METAR et TAF).

Les stations disponibles sont représentées par des disques jaunes et rouges sur la carte.

Passer la souris dessus pour voir le nom de la station.

Cliquer dessus pour voir les observations et prévisions météorologiques.

Pour changer de carte: cliquez sur les boutons verts avec une croix noire pour zoomer, sur le bouton vert avec un tiret pour effectuer un zoom arrière, ou sur les flèches vertes pour les cartes adjacentes.


METAR-TAF: